Location: Arrow Head Lodge
(44.7836°N, 106.9681°W)
Time: 08:29:13
(UTC+00:00)

Tiangong - Visible Passes

Search period start: 18 October 2021 00:00
Search period end: 28 October 2021 00:00
Orbit: 382 x 385 km, 41.5° (Epoch: 17 October)

Date Brightness Start Highest point End Pass type
(mag) Time Alt. Az. Time Alt. Az. Time Alt. Az.
18 Oct 4.0 02:34:24 10° SW 02:34:49 13° SW 02:34:49 13° SW visible
19 Oct 2.7 01:34:49 10° SSW 01:37:16 21° SSE 01:37:43 20° SE visible
20 Oct 2.7 02:10:43 10° WSW 02:12:43 29° SSW 02:12:43 29° SSW visible
21 Oct 2.4 01:10:52 10° SW 01:13:40 28° SSE 01:15:27 17° ESE visible
21 Oct 4.2 02:47:07 10° WSW 02:47:38 14° WSW 02:47:38 14° WSW visible
22 Oct 1.6 01:47:04 10° WSW 01:50:05 43° S 01:50:18 42° SSE visible
23 Oct 2.1 00:47:03 10° WSW 00:49:59 36° S 00:52:56 10° E visible
23 Oct 3.2 02:23:30 10° WSW 02:25:06 25° WSW 02:25:06 25° WSW visible
24 Oct 1.7 01:23:21 10° WSW 01:26:25 45° S 01:27:43 27° ESE visible
25 Oct 2.3 01:59:50 10° W 02:02:29 35° SSW 02:02:29 35° SSW visible
26 Oct 1.9 00:59:36 10° WSW 01:02:37 43° S 01:05:06 14° ESE visible
26 Oct 4.2 02:36:36 10° WSW 02:37:16 14° WSW 02:37:16 14° WSW visible
27 Oct 2.7 01:36:08 10° WSW 01:38:55 28° SSW 01:39:55 23° SSE visible
